Location: Carri�res
(48.9069°N, 2.1792°E)
Time: 01:25:18
(UTC+00:00)

X-37B - Visible Passes

Search period start: 01 December 2021 00:00
Search period end: 11 December 2021 00:00
Orbit: 330 x 341 km, 45.0° (Epoch: 20 November)

Date Brightness Start Highest point End Pass type
(mag) Time Alt. Az. Time Alt. Az. Time Alt. Az.
08 Dec 2.5 17:35:33 10° SSW 17:37:26 16° SSE 17:37:44 16° SSE visible
09 Dec 2.0 17:55:10 10° SW 17:57:18 25° S 17:57:18 25° S visible
10 Dec 2.7 16:40:59 10° SSW 16:42:52 16° SSE 16:44:45 10° ESE visible
10 Dec 2.4 18:15:14 10° WSW 18:16:51 25° SW 18:16:51 25° SW visible
